DiskSat-1

operational
NORAD ID: 67219 Int'l Des: 2025-305 Owner: STP Country: US
LEOCIRCULAR

关于 DiskSat-1

正在加载描述...

实时位置

正在加载3D地球...

即将过境

高度历史

Altitude vs Time

uPlot chart will show altitude changes over time

两行轨道根数

1 67219U 25305A 25352.25791200 .00000705 00000-0 64033-4 0 9995
2 67219 45.0103 321.2665 0004355 276.2808 83.7571 15.05868419 14
Epoch: Dec 18, 2025 • Age: 38 hours

当前状态

高度 553.8 km
速度 7.59 km/s
星下点 -23.81°S, 134°E
发射日期 Dec 18, 2025
运行时间 1 days
类型 other

技术详情

分类 Payload
质量 3.00 kg
干质量 3.00 kg
总质量 3.00 kg
长度 0.03 m
直径 1.00 m
跨度 1.00 m
形状 Cyl
制造商 AERO
平台类型 DiskSat
阶段状态 In Orbit
所有者/国家 STP/US

大型星座

Loading constellations...